Skip Page Navigation
NASA JPL Caltech
NASA Logo - Jet Propulsion Laboratory + View the NASA Portal
+ Near-Earth Object (NEO) Program
Search JPL
JPL Home Earth Solar System Stars & Galaxies Technology
JPL Solar System Dynamics
BODIES ORBITS EPHEMERIDES TOOLS PHYSICAL DATA DISCOVERY FAQ SITE MAP
JPL Small-Body Database Browser
Search: [ help ]  
7275 (1983 CY2)
Classification: Main-belt Asteroid          SPK-ID: 2007275
Ephemeris | Orbit Diagram | Orbital Elements | Physical Parameters | Discovery Circumstances | Close-Approach Data ]

[ show orbit diagram ]
Orbital Elements at Epoch 2457000.5 (2014-Dec-09.0) TDB
Reference: JPL 16 (heliocentric ecliptic J2000)
 Element Value Uncertainty (1-sigma)   Units 
e .06691775602252224 4.6824e-08  
a 2.991776702999462 2.5286e-08 AU
q 2.791573719514278 1.3445e-07 AU
i 9.183149428929376 7.6564e-06 deg
node 326.1343131363525 3.5475e-05 deg
peri 111.2943657201302 7.2835e-05 deg
M 128.0229626062383 6.3535e-05 deg
tp 2456328.332417773366
(2013-Feb-04.83241777)
0.0003318 JED
period 1890.132244055701
5.17
2.3962e-05
6.56e-08
d
yr
n .1904628637134615 2.4146e-09 deg/d
Q 3.191979686484645 2.6978e-08 AU
  Orbit Determination Parameters
   # obs. used (total)      1074  
   data-arc span      21786 days (59.65 yr)  
   first obs. used      1955-10-24  
   last obs. used      2015-06-17  
   planetary ephem.      DE431  
   SB-pert. ephem.      SB431-BIG16  
   condition code      0  
   fit RMS      .52163  
   data source      ORB  
   producer      Otto Matic  
   solution date      2015-Jul-06 11:56:25  

Additional Information
 Earth MOID = 1.8234 AU 
 T_jup = 3.233 
[ show covariance matrix ]

Ephemeris | Orbit Diagram | Orbital Elements | Physical Parameters | Discovery Circumstances | Close-Approach Data ]

Physical Parameter Table
Parameter Symbol Value Units Sigma Reference Notes
absolute magnitude H 12.1 mag n/a MPO279591  

7275 (1983 CY2)          Discovered 1983-Feb-15 by Thomas, N. G. at Anderson Mesa
Reference: DISCOVERY.DBLast Updated: 2003-08-29

[ show close-approach data ]
Alternate Designations
 1983 CY2 = 1991 UR3 
Ephemeris | Orbit Diagram | Orbital Elements | Physical Parameters | Discovery Circumstances | Close-Approach Data ]
ABOUT SSD CREDITS/AWARDS PRIVACY/COPYRIGHT GLOSSARY LINKS
FirstGov 2015-Jul-31 03:05 UT
(server date/time)  
NASA Home Page
Site Manager:   Ryan S. Park
Webmaster  Alan B. Chamberlin